[[{"header":{"parameterUnit":"m.s-1","parameterCategory":1,"la1":30.2991,"la2":30.254,"lo1":-89.0895,"lo2":-89.0444,"dy":0.0017,"dx":0.0017,"nx":28,"ny":28,"refTime":"2024-08-05T21:00:00:Z","depth":0,"parameterNumber":2,"parameterNumberName":"U-component_of_WINDS"},"data":[0,0,0,0,0,0,0,0,0,0,0,0,0,0,0,0,0,0,0,0,0,0,0,0,0,0,0,0,0,0,0,0,0,0,0,0,0,0,0,0,0,0,0,0,0,0,0,0,0,0,0,0,0,0,0,0,0,0,3.5557,3.5558,0,3.5628,3.5629,3.563,3.5557,3.5554,3.5551,3.5548,3.5622,3.5626,3.5631,0,0,0,0,0,0,0,0,0,0,0,0,0,3.536,3.5364,3.5557,3.5558,3.5559,3.5628,3.5629,3.563,3.5557,3.5554,3.555,3.5547,3.562,3.5626,3.5631,0,0,0,0,0,0,0,0,0,0,0,0,0,3.544,3.5365,3.5557,3.5531,3.5529,3.5628,3.5629,3.5631,3.5558,3.5554,3.555,3.5546,3.5619,3.5625,3.5632,3.576,0,0,3.5653,3.5656,0,0,0,0,0,0,0,0,3.5435,3.5447,3.5534,3.5533,3.5531,3.5579,3.5586,3.5674,3.5559,3.5547,3.5548,3.5543,3.5611,3.5619,3.5641,3.5764,3.5767,3.5654,3.5658,3.5661,3.5663,0,0,0,0,0,0,0,3.543,3.5444,3.5585,3.5535,3.5534,3.5516,3.5523,3.5603,3.5602,3.5548,3.5543,3.5552,3.561,3.5635,3.5642,3.5768,3.5654,3.566,3.5664,3.5667,3.6002,3.6006,0,0,0,0,0,0,3.5427,3.5439,3.5583,3.5587,3.5472,3.5523,3.5531,3.5568,3.5601,3.5602,3.5556,3.5548,3.5625,3.5634,3.5645,3.5799,3.5661,3.5668,3.5671,3.5997,3.6003,3.6008,0,0,0,0,0,0,3.5423,3.544,3.558,3.5512,3.5529,3.5531,3.5574,3.5572,3.5597,3.5607,3.5607,3.5581,3.5622,3.5635,3.5733,3.58,3.5671,3.5677,3.5991,3.5999,3.6005,3.6106,0,0,0,0,0,0,3.5418,3.5439,3.5488,3.5514,3.5532,3.5667,3.5578,3.5576,3.5609,3.56,3.5631,3.5632,3.562,3.5723,3.574,3.5807,3.5682,3.5985,3.5994,3.6003,3.6097,3.6116,3.6132,0,0,0,0,0,3.5411,3.5513,3.5491,3.5508,3.5593,3.5671,3.5681,3.5665,3.5615,3.5664,3.5671,3.5631,3.579,3.5733,3.5752,3.5822,3.5981,3.5992,3.6002,3.6089,3.6112,3.6132,0,0,0,0,0,0,3.5495,3.5516,3.5491,3.5605,3.5637,3.5658,3.5719,3.569,3.5736,3.5726,3.5704,3.5712,3.5815,3.5828,3.5765,3.5949,3.5877,3.5892,3.5937,3.5959,3.5977,3.5972,3.5688,0,0,0,0,0,3.5527,3.5588,3.5603,3.5702,3.5719,3.5717,3.575,3.5735,3.5767,3.578,3.5794,3.5827,3.5884,3.5922,3.5975,3.6098,3.6105,3.6156,3.6174,3.6188,3.6202,3.627,3.6293,3.6043,3.6043,3.6042,0,0,3.5593,3.5612,3.5652,3.5719,3.5742,3.5807,3.5729,3.58,3.5848,3.579,3.5884,3.5896,3.5931,3.6042,3.6092,3.6056,3.6272,3.6202,3.6213,3.6219,3.6283,3.6307,3.6328,3.605,3.6049,3.6047,0,0,3.5747,3.5767,3.5852,3.5877,3.5913,3.5911,3.5931,3.5958,3.5964,3.6057,3.6016,3.6073,3.6172,3.6199,3.6226,3.6392,3.6358,3.641,3.6503,3.6569,3.6589,3.6607,3.6667,3.6689,3.6423,3.6424,3.6424,0,3.5825,3.592,3.59,3.5975,3.6006,3.5958,3.6045,3.607,3.6121,3.6145,3.6104,3.6228,3.6248,3.6366,3.6407,3.643,3.6454,3.6407,3.6588,3.6605,3.6621,3.6679,3.6702,3.643,3.6429,3.6428,3.6428,0,3.6015,3.6082,3.6146,3.6198,3.6237,3.6317,3.631,3.6352,3.6334,3.6336,3.6433,3.6456,3.6514,3.654,3.6523,3.6657,3.6634,3.6591,3.6518,3.6652,3.6706,3.6727,3.6439,3.6436,3.6434,3.6433,0,0,3.6223,3.6264,3.6288,3.6311,3.6348,3.6399,3.6478,3.6535,3.6572,3.6609,3.6676,3.6762,3.6723,3.6753,3.6739,3.6797,3.6929,3.6747,3.6747,3.6781,3.7081,3.7114,3.714,3.6907,3.6911,3.6914,3.7078,0,3.6379,3.6516,3.6501,3.6632,3.6695,3.665,3.6719,3.675,3.6755,3.6809,3.6814,3.6876,3.6819,3.6838,3.6893,3.6902,3.6989,3.6889,3.697,3.6973,3.6964,3.7167,3.7202,3.7356,3.7099,3.7103,3.7105,0,3.658,3.6625,3.6762,3.6791,3.6817,3.6879,3.6931,3.6983,3.7017,3.7016,3.7052,3.7027,3.7108,3.7033,3.7144,3.7077,3.7109,3.7118,3.7123,3.7131,3.7048,3.7182,3.7404,3.7428,3.7138,3.7135,3.7133,0,3.672,3.6815,3.691,3.6932,3.6967,3.7012,3.7029,3.7058,3.7094,3.7139,3.7163,3.7217,3.7247,3.729,3.7281,3.7227,3.7395,3.7319,3.7398,3.7399,3.7437,3.7435,3.7668,3.7455,3.7455,3.7455,3.7454,0,3.6897,3.6983,3.6974,3.7033,3.7128,3.7111,3.7206,3.7217,3.7245,3.7305,3.727,3.7328,3.7312,3.737,3.7363,3.7457,3.7471,3.7474,3.7471,3.7478,3.7478,3.7499,3.7489,3.7461,3.7459,3.7458,3.7457,0,3.707,3.7067,3.7168,3.7194,3.7202,3.7272,3.7294,3.735,3.7352,3.7429,3.7447,3.7451,3.7517,3.7512,3.7586,3.7582,3.7699,3.7683,3.7688,3.7685,3.7765,3.7758,3.8022,3.8056,3.782,3.7822,3.7824,0,3.7184,3.7249,3.7282,3.732,3.734,3.7402,3.7438,3.7424,3.7463,3.7508,3.7559,3.7622,3.7671,3.7779,3.7789,3.7846,3.7832,3.7921,3.7841,3.7846,3.7836,3.7833,3.784,3.7937,3.794,3.7942,3.7944,0,3.7386,3.7382,3.7436,3.749,3.7535,3.7577,3.7615,3.7648,3.7638,3.7684,3.7751,3.779,3.7866,3.793,3.7985,3.8002,3.7973,3.7969,3.799,3.7998,3.7999,3.8001,3.7732,3.7963,3.7961,3.796,3.7959,3.7958,3.7534,3.7591,3.7623,3.7685,3.7712,3.7749,3.7803,3.7813,3.7869,3.793,3.7918,3.7994,3.8028,3.8098,3.8122,3.8181,3.815,3.8181,3.8189,3.8197,3.8207,3.7989,3.8191,3.8191,3.819,3.819,3.8189,0,3.7736,3.7755,3.7812,3.7867,3.7916,3.7883,3.7924,3.7967,3.8035,3.8068,3.8118,3.8197,3.8258,3.8274,3.8333,3.8378,3.8366,3.8395,3.8392,3.8397,3.8231,3.8207,3.8404,3.8404,3.8404,3.8403,3.8403,3.8403,3.7847,3.7942,3.7942,3.8051,3.8069,3.8143,3.817,3.8204,3.8231,3.832,3.8371,3.8381,3.8408,3.8469,3.8525,3.8528,3.8552,3.8587,3.8585,3.843,3.8408,3.8388,3.8365,3.8592,3.8592,3.8745,3.8747,3.8748]},{"header":{"parameterUnit":"m.s-1","parameterCategory":1,"la1":30.2991,"la2":30.254,"lo1":-89.0895,"lo2":-89.0444,"dy":0.0017,"dx":0.0017,"nx":28,"ny":28,"refTime":"2024-08-05T21:00:00:Z","depth":0,"parameterNumber":3,"parameterNumberName":"V-component_of_WINDS"},"data":[0,0,0,0,0,0,0,0,0,0,0,0,0,0,0,0,0,0,0,0,0,0,0,0,0,0,0,0,0,0,0,0,0,0,0,0,0,0,0,0,0,0,0,0,0,0,0,0,0,0,0,0,0,0,0,0,0,0,-2.6103,-2.6105,0,-2.6232,-2.6233,-2.6235,-2.6241,-2.6239,-2.6238,-2.6236,-2.6369,-2.6374,-2.6379,0,0,0,0,0,0,0,0,0,0,0,0,0,-2.5864,-2.5868,-2.6103,-2.6105,-2.6106,-2.6232,-2.6234,-2.6235,-2.6241,-2.6239,-2.6238,-2.6236,-2.6367,-2.6373,-2.6379,0,0,0,0,0,0,0,0,0,0,0,0,0,-2.5978,-2.587,-2.6103,-2.6124,-2.6128,-2.6231,-2.6234,-2.6236,-2.6242,-2.6239,-2.6237,-2.6235,-2.6365,-2.6372,-2.638,-2.6471,0,0,-2.6402,-2.6406,0,0,0,0,0,0,0,0,-2.5971,-2.5987,-2.612,-2.6123,-2.6127,-2.6218,-2.6198,-2.6315,-2.6242,-2.6198,-2.6236,-2.6234,-2.6321,-2.6331,-2.6361,-2.6477,-2.6483,-2.6403,-2.6408,-2.6411,-2.6413,0,0,0,0,0,0,0,-2.5963,-2.5981,-2.6154,-2.6122,-2.6126,-2.6128,-2.6142,-2.622,-2.6271,-2.6202,-2.6203,-2.6218,-2.6322,-2.6353,-2.6364,-2.6485,-2.6403,-2.6409,-2.6414,-2.6417,-2.6684,-2.6686,0,0,0,0,0,0,-2.5951,-2.5974,-2.615,-2.6158,-2.6042,-2.6134,-2.615,-2.6191,-2.627,-2.628,-2.622,-2.6218,-2.6342,-2.6355,-2.6368,-2.6481,-2.6411,-2.6418,-2.6422,-2.6681,-2.6684,-2.6687,0,0,0,0,0,0,-2.5946,-2.5967,-2.6145,-2.6067,-2.6089,-2.6141,-2.6187,-2.6195,-2.6226,-2.6283,-2.6292,-2.6242,-2.6341,-2.6358,-2.6446,-2.6486,-2.6421,-2.6428,-2.6678,-2.6682,-2.6686,-2.6707,0,0,0,0,0,0,-2.5939,-2.5965,-2.6,-2.6067,-2.6094,-2.622,-2.619,-2.6199,-2.6239,-2.6238,-2.6307,-2.6316,-2.634,-2.6435,-2.6453,-2.6495,-2.6433,-2.6675,-2.668,-2.6685,-2.6703,-2.6711,-2.6718,0,0,0,0,0,-2.5931,-2.6,-2.6001,-2.6023,-2.6138,-2.6222,-2.6237,-2.6263,-2.6242,-2.6278,-2.6315,-2.6314,-2.6478,-2.6443,-2.6464,-2.6509,-2.6672,-2.6678,-2.6684,-2.6699,-2.6709,-2.6718,0,0,0,0,0,0,-2.5936,-2.6009,-2.6012,-2.6105,-2.6157,-2.6223,-2.6268,-2.6273,-2.6332,-2.6328,-2.6358,-2.6374,-2.6461,-2.6494,-2.6454,-2.6602,-2.6573,-2.6583,-2.6577,-2.6587,-2.6595,-2.6585,-2.644,0,0,0,0,0,-2.5948,-2.601,-2.6071,-2.6147,-2.6173,-2.6216,-2.6254,-2.627,-2.6325,-2.6347,-2.639,-2.6444,-2.6508,-2.6549,-2.6611,-2.6707,-2.6723,-2.6748,-2.6756,-2.6762,-2.6771,-2.6825,-2.6837,-2.6707,-2.6707,-2.6707,0,0,-2.5974,-2.6021,-2.6058,-2.615,-2.6192,-2.6256,-2.6235,-2.6303,-2.6351,-2.6357,-2.6443,-2.6477,-2.6539,-2.6631,-2.6674,-2.6661,-2.681,-2.677,-2.6774,-2.678,-2.6832,-2.6845,-2.6856,-2.6711,-2.671,-2.671,0,0,-2.6053,-2.6095,-2.6164,-2.6207,-2.6271,-2.6299,-2.6316,-2.6381,-2.6404,-2.649,-2.6497,-2.6554,-2.6663,-2.6708,-2.6745,-2.6842,-2.6844,-2.6861,-2.6901,-2.6954,-2.6964,-2.6973,-2.7009,-2.7021,-2.687,-2.687,-2.687,0,-2.6076,-2.6172,-2.6199,-2.6267,-2.6307,-2.6317,-2.6387,-2.6427,-2.6509,-2.6537,-2.6521,-2.6659,-2.6702,-2.6805,-2.6829,-2.6858,-2.6879,-2.6853,-2.696,-2.697,-2.6979,-2.7013,-2.7026,-2.6872,-2.6871,-2.6871,-2.6871,0,-2.6199,-2.6265,-2.6313,-2.6391,-2.6437,-2.6506,-2.6544,-2.6587,-2.6599,-2.6629,-2.6718,-2.6769,-2.6842,-2.6868,-2.688,-2.6974,-2.6964,-2.6954,-2.6926,-2.6993,-2.7025,-2.7039,-2.6874,-2.6873,-2.6873,-2.6872,0,0,-2.6284,-2.6377,-2.6394,-2.643,-2.6502,-2.6554,-2.6624,-2.6696,-2.6733,-2.6789,-2.6848,-2.6941,-2.6933,-2.6975,-2.6992,-2.7039,-2.7113,-2.7023,-2.7025,-2.7039,-2.7221,-2.7228,-2.7242,-2.7115,-2.7118,-2.712,-2.7216,0,-2.6372,-2.6496,-2.6522,-2.663,-2.6692,-2.6702,-2.6763,-2.6814,-2.6845,-2.6902,-2.6936,-2.7002,-2.6985,-2.7011,-2.7057,-2.7094,-2.715,-2.7088,-2.7172,-2.7175,-2.7156,-2.7259,-2.7267,-2.7355,-2.7228,-2.7231,-2.7232,0,-2.649,-2.6549,-2.6663,-2.6727,-2.6755,-2.6809,-2.6877,-2.6932,-2.699,-2.7009,-2.7057,-2.707,-2.7144,-2.7112,-2.7214,-2.7171,-2.7207,-2.7231,-2.7235,-2.7244,-2.7207,-2.7272,-2.7383,-2.7397,-2.7252,-2.7251,-2.7249,0,-2.6542,-2.665,-2.6732,-2.6762,-2.684,-2.6878,-2.6912,-2.6968,-2.701,-2.707,-2.7097,-2.7165,-2.7202,-2.7254,-2.7285,-2.7259,-2.7386,-2.7356,-2.7404,-2.7404,-2.7431,-2.7429,-2.755,-2.7453,-2.7453,-2.7453,-2.7453,0,-2.6637,-2.6706,-2.6756,-2.6807,-2.6885,-2.6915,-2.6992,-2.7026,-2.7076,-2.7134,-2.7147,-2.7202,-2.7239,-2.7299,-2.7324,-2.7406,-2.7422,-2.744,-2.7446,-2.7439,-2.7437,-2.7463,-2.7458,-2.7456,-2.7456,-2.7455,-2.7454,0,-2.6708,-2.6744,-2.6835,-2.6901,-2.6919,-2.6974,-2.7031,-2.7081,-2.7111,-2.7185,-2.7204,-2.7252,-2.7323,-2.736,-2.7448,-2.7465,-2.7558,-2.7559,-2.7538,-2.754,-2.7586,-2.7582,-2.7729,-2.7751,-2.7639,-2.764,-2.7641,0,-2.6766,-2.682,-2.6892,-2.6931,-2.6966,-2.703,-2.7073,-2.7105,-2.7149,-2.722,-2.7262,-2.7333,-2.7393,-2.7506,-2.755,-2.7618,-2.7622,-2.7669,-2.7632,-2.7624,-2.7623,-2.762,-2.7626,-2.7675,-2.7676,-2.7677,-2.7678,0,-2.6866,-2.6882,-2.6942,-2.701,-2.706,-2.7115,-2.7169,-2.7201,-2.7242,-2.7291,-2.7364,-2.741,-2.75,-2.7572,-2.7644,-2.7679,-2.7686,-2.7689,-2.7704,-2.7698,-2.7683,-2.7693,-2.7556,-2.7686,-2.7685,-2.7684,-2.7684,-2.7684,-2.6933,-2.6982,-2.704,-2.7108,-2.7152,-2.7202,-2.7253,-2.729,-2.7351,-2.7427,-2.7443,-2.752,-2.7579,-2.7676,-2.7714,-2.7775,-2.7765,-2.7787,-2.7792,-2.7797,-2.78,-2.7673,-2.7788,-2.7788,-2.7788,-2.7788,-2.7788,0,-2.7035,-2.7073,-2.7135,-2.721,-2.7263,-2.7265,-2.7325,-2.7369,-2.7437,-2.7491,-2.7549,-2.7634,-2.7703,-2.7753,-2.7824,-2.7864,-2.7869,-2.7882,-2.7879,-2.7888,-2.7804,-2.7784,-2.7876,-2.7876,-2.7876,-2.7876,-2.7876,-2.7876,-2.7093,-2.7176,-2.7198,-2.7303,-2.7341,-2.7417,-2.7451,-2.7498,-2.7542,-2.7635,-2.7693,-2.7725,-2.7777,-2.7852,-2.7917,-2.793,-2.7956,-2.7968,-2.7981,-2.7903,-2.7893,-2.7884,-2.7866,-2.7974,-2.7974,-2.806,-2.8061,-2.8061]}]]